Time,TemperatureF,DewpointF,PressureIn,WindDirection,WindDirectionDegrees,WindSpeedMPH,WindSpeedGustMPH,Humidity,HourlyPrecipIn,Conditions,Clouds,dailyrainin,SoftwareType,DateUTC
2013-04-10 00:02:00,49.0,48.0,30.20,North,0,0.0,0.0,95,37.06,,,-99.99,,2013-04-10 07:02:00,
2013-04-10 00:12:00,49.0,48.0,30.20,North,0,0.0,0.0,95,37.06,,,-99.99,,2013-04-10 07:12:00,
2013-04-10 00:22:00,49.0,48.0,30.20,North,0,0.0,0.0,95,37.06,,,-99.99,,2013-04-10 07:22:00,
2013-04-10 00:32:00,49.0,48.0,30.20,North,0,0.0,0.0,95,37.06,,,-99.99,,2013-04-10 07:32:00,
2013-04-10 00:42:00,49.0,48.0,30.20,North,0,0.0,0.0,95,37.06,,,-99.99,,2013-04-10 07:42:00,
2013-04-10 00:52:00,49.0,48.0,30.20,North,0,0.0,0.0,95,37.06,,,-99.99,,2013-04-10 07:52:00,
2013-04-10 01:02:00,49.0,48.0,30.20,North,0,0.0,0.0,95,37.06,,,-99.99,,2013-04-10 08:02:00,
2013-04-10 01:32:00,49.0,48.0,30.19,North,0,0.0,0.0,95,37.06,,,-99.99,,2013-04-10 08:32:00,
2013-04-10 01:42:00,49.0,48.0,30.19,North,0,0.0,0.0,95,37.06,,,-99.99,,2013-04-10 08:42:00,
2013-04-10 02:12:00,48.0,47.0,30.19,North,0,0.0,0.0,96,37.06,,,-99.99,,2013-04-10 09:12:00,
2013-04-10 02:22:00,48.0,47.0,30.19,North,0,0.0,0.0,96,37.06,,,-99.99,,2013-04-10 09:22:00,
2013-04-10 02:32:00,49.0,48.0,30.18,North,0,0.0,0.0,96,37.06,,,-99.99,,2013-04-10 09:32:00,
2013-04-10 02:42:00,48.0,47.0,30.17,North,0,0.0,0.0,96,37.06,,,-99.99,,2013-04-10 09:42:00,
2013-04-10 02:52:00,48.0,47.0,30.17,North,0,0.0,0.0,96,37.06,,,-99.99,,2013-04-10 09:52:00,
2013-04-10 03:02:00,48.0,47.0,30.16,North,0,0.0,0.0,96,37.06,,,-99.99,,2013-04-10 10:02:00,
2013-04-10 03:12:00,48.0,47.0,30.16,North,0,0.0,0.0,96,37.06,,,-99.99,,2013-04-10 10:12:00,
2013-04-10 03:23:00,48.0,47.0,30.16,North,0,0.0,0.0,96,37.06,,,-99.99,,2013-04-10 10:23:00,
2013-04-10 03:32:00,48.0,47.0,30.15,North,0,0.0,0.0,96,37.06,,,-99.99,,2013-04-10 10:32:00,
2013-04-10 03:42:00,48.0,47.0,30.15,North,0,0.0,0.0,96,37.06,,,-99.99,,2013-04-10 10:42:00,
2013-04-10 03:52:00,48.0,47.0,30.15,North,0,0.0,0.0,96,37.06,,,-99.99,,2013-04-10 10:52:00,
2013-04-10 04:02:00,48.0,47.0,30.15,North,0,0.0,0.0,96,37.06,,,-99.99,,2013-04-10 11:02:00,
2013-04-10 04:12:00,48.0,47.0,30.15,North,0,0.0,0.0,96,37.06,,,-99.99,,2013-04-10 11:12:00,
2013-04-10 04:22:00,48.0,47.0,30.15,North,0,0.0,0.0,96,37.06,,,-99.99,,2013-04-10 11:22:00,
2013-04-10 04:32:00,48.0,47.0,30.15,North,0,0.0,0.0,96,37.06,,,-99.99,,2013-04-10 11:32:00,
2013-04-10 04:42:00,48.0,47.0,30.15,North,0,0.0,0.0,96,37.06,,,-99.99,,2013-04-10 11:42:00,
2013-04-10 04:52:00,47.0,46.0,30.14,North,0,0.0,0.0,97,37.06,,,-99.99,,2013-04-10 11:52:00,
2013-04-10 05:02:00,48.0,47.0,30.13,North,0,0.0,0.0,97,37.06,,,-99.99,,2013-04-10 12:02:00,
2013-04-10 05:12:00,48.0,47.0,30.13,North,0,0.0,0.0,97,37.06,,,-99.99,,2013-04-10 12:12:00,
2013-04-10 05:22:00,48.0,47.0,30.13,North,0,0.0,0.0,97,37.06,,,-99.99,,2013-04-10 12:22:00,
2013-04-10 05:32:00,47.0,46.0,30.13,North,0,0.0,0.0,97,37.06,,,-99.99,,2013-04-10 12:32:00,
2013-04-10 05:42:00,47.0,46.0,30.13,North,0,0.0,0.0,97,37.06,,,-99.99,,2013-04-10 12:42:00,
2013-04-10 05:52:00,47.0,46.0,30.13,North,0,0.0,0.0,97,37.06,,,-99.99,,2013-04-10 12:52:00,
2013-04-10 06:01:00,47.0,46.0,30.11,North,0,0.0,0.0,97,37.07,,,-99.99,,2013-04-10 13:01:00,
2013-04-10 06:11:00,47.0,46.0,30.11,North,0,0.0,0.0,97,37.07,,,-99.99,,2013-04-10 13:11:00,
2013-04-10 06:23:00,47.0,46.0,30.10,North,0,0.0,0.0,97,37.07,,,-99.99,,2013-04-10 13:23:00,
2013-04-10 06:32:00,47.0,46.0,30.10,North,0,0.0,0.0,97,37.07,,,-99.99,,2013-04-10 13:32:00,
2013-04-10 06:42:00,47.0,46.0,30.10,North,0,0.0,0.0,97,37.07,,,-99.99,,2013-04-10 13:42:00,
2013-04-10 07:02:00,47.0,46.0,30.09,North,0,0.0,0.0,97,37.08,,,-99.99,,2013-04-10 14:02:00,
2013-04-10 07:12:00,47.0,46.0,30.09,North,0,0.0,0.0,97,37.08,,,-99.99,,2013-04-10 14:12:00,
2013-04-10 07:22:00,47.0,46.0,30.06,South,187,0.0,1.0,97,37.11,,,-99.99,,2013-04-10 14:22:00,
2013-04-10 07:33:00,47.0,46.0,30.06,South,187,0.0,1.0,97,37.11,,,-99.99,,2013-04-10 14:33:00,
2013-04-10 07:42:00,47.0,46.0,30.06,South,187,0.0,1.0,97,37.11,,,-99.99,,2013-04-10 14:42:00,
2013-04-10 07:52:00,47.0,46.0,30.06,South,187,0.0,1.0,97,37.11,,,-99.99,,2013-04-10 14:52:00,
2013-04-10 08:02:00,47.0,46.0,30.05,North,0,0.0,0.0,98,37.12,,,-99.99,,2013-04-10 15:02:00,
2013-04-10 08:10:00,48.0,47.0,30.02,North,0,0.0,0.0,98,37.14,,,-99.99,,2013-04-10 15:10:00,
2013-04-10 08:12:00,47.0,46.0,30.05,North,0,0.0,0.0,98,37.12,,,-99.99,,2013-04-10 15:12:00,
2013-04-10 08:22:00,47.0,46.0,30.05,North,0,0.0,0.0,98,37.12,,,-99.99,,2013-04-10 15:22:00,
2013-04-10 08:32:00,48.0,47.0,30.02,North,0,0.0,0.0,98,37.14,,,-99.99,,2013-04-10 15:32:00,
2013-04-10 08:43:00,48.0,47.0,30.02,North,0,0.0,0.0,98,37.14,,,-99.99,,2013-04-10 15:43:00,
2013-04-10 08:52:00,48.0,47.0,30.02,North,0,0.0,0.0,98,37.14,,,-99.99,,2013-04-10 15:52:00,
2013-04-10 09:02:00,48.0,47.0,30.02,North,0,0.0,0.0,98,37.14,,,-99.99,,2013-04-10 16:02:00,
2013-04-10 09:33:00,48.0,47.0,29.95,North,0,0.0,0.0,98,37.16,,,-99.99,,2013-04-10 16:33:00,
2013-04-10 09:43:00,48.0,47.0,29.95,North,0,0.0,0.0,98,37.16,,,-99.99,,2013-04-10 16:43:00,
2013-04-10 09:53:00,49.0,48.0,29.96,North,0,0.0,0.0,98,37.18,,,-99.99,,2013-04-10 16:53:00,
2013-04-10 10:02:00,49.0,48.0,29.96,North,0,0.0,0.0,98,37.18,,,-99.99,,2013-04-10 17:02:00,
2013-04-10 10:12:00,50.0,49.0,29.96,North,0,0.0,0.0,98,37.31,,,-99.99,,2013-04-10 17:12:00,
2013-04-10 10:22:00,50.0,49.0,29.96,North,0,0.0,0.0,98,37.31,,,-99.99,,2013-04-10 17:22:00,
2013-04-10 10:32:00,50.0,49.0,29.97,WSW,257,1.0,6.0,98,37.37,,,-99.99,,2013-04-10 17:32:00,
2013-04-10 10:43:00,50.0,49.0,29.97,WSW,257,1.0,6.0,98,37.37,,,-99.99,,2013-04-10 17:43:00,
2013-04-10 10:52:00,50.0,49.0,29.97,WSW,257,1.0,6.0,98,37.37,,,-99.99,,2013-04-10 17:52:00,
2013-04-10 11:02:00,50.0,49.0,29.96,SSE,167,6.0,11.0,98,37.43,,,-99.99,,2013-04-10 18:02:00,
2013-04-10 11:11:00,50.0,49.0,29.96,SSE,167,6.0,11.0,98,37.43,,,-99.99,,2013-04-10 18:11:00,
2013-04-10 11:22:00,50.0,49.0,29.96,SSE,167,6.0,11.0,98,37.43,,,-99.99,,2013-04-10 18:22:00,
2013-04-10 11:32:00,52.0,51.0,29.96,South,187,6.0,14.0,97,37.47,,,-99.99,,2013-04-10 18:32:00,
2013-04-10 11:42:00,52.0,51.0,29.96,South,187,6.0,14.0,97,37.47,,,-99.99,,2013-04-10 18:42:00,
2013-04-10 11:50:00,51.0,50.0,29.98,SW,229,4.0,18.0,97,37.52,,,-99.99,,2013-04-10 18:50:00,
2013-04-10 11:52:00,51.0,50.0,29.97,SSW,198,8.0,21.0,97,37.48,,,-99.99,,2013-04-10 18:52:00,
2013-04-10 12:02:00,51.0,50.0,29.98,SSE,156,6.0,20.0,97,37.51,,,-99.99,,2013-04-10 19:02:00,
2013-04-10 12:12:00,51.0,50.0,29.98,SSE,156,6.0,20.0,97,37.51,,,-99.99,,2013-04-10 19:12:00,
2013-04-10 12:22:00,51.0,50.0,29.98,SW,229,4.0,18.0,97,37.52,,,-99.99,,2013-04-10 19:22:00,
2013-04-10 12:32:00,51.0,50.0,29.98,SW,229,4.0,18.0,97,37.52,,,-99.99,,2013-04-10 19:32:00,
2013-04-10 12:41:00,51.0,50.0,29.98,SW,229,4.0,18.0,97,37.52,,,-99.99,,2013-04-10 19:41:00,
2013-04-10 13:02:00,52.0,51.0,30.01,SSW,210,6.0,17.0,97,37.54,,,-99.99,,2013-04-10 20:02:00,
2013-04-10 13:12:00,52.0,51.0,30.02,ESE,114,5.0,20.0,97,37.54,,,-99.99,,2013-04-10 20:12:00,
2013-04-10 13:20:00,52.0,51.0,30.04,SW,214,5.0,13.0,96,37.54,,,-99.99,,2013-04-10 20:20:00,
2013-04-10 13:22:00,52.0,51.0,30.02,ESE,114,5.0,20.0,97,37.54,,,-99.99,,2013-04-10 20:22:00,
2013-04-10 13:32:00,52.0,51.0,30.02,ESE,114,5.0,20.0,97,37.54,,,-99.99,,2013-04-10 20:32:00,
2013-04-10 13:42:00,52.0,51.0,30.04,SW,214,5.0,13.0,96,37.54,,,-99.99,,2013-04-10 20:42:00,
2013-04-10 13:52:00,52.0,51.0,30.04,SW,214,5.0,13.0,96,37.54,,,-99.99,,2013-04-10 20:52:00,
2013-04-10 14:02:00,52.0,51.0,30.04,SW,214,5.0,13.0,96,37.54,,,-99.99,,2013-04-10 21:02:00,
2013-04-10 14:12:00,52.0,51.0,30.04,SW,214,5.0,13.0,96,37.54,,,-99.99,,2013-04-10 21:12:00,
2013-04-10 14:33:00,51.0,50.0,30.07,SSE,160,5.0,12.0,96,37.55,,,-99.99,,2013-04-10 21:33:00,
2013-04-10 14:43:00,51.0,50.0,30.07,SSE,160,5.0,12.0,96,37.55,,,-99.99,,2013-04-10 21:43:00,
2013-04-10 14:53:00,51.0,50.0,30.07,SSE,160,5.0,12.0,96,37.55,,,-99.99,,2013-04-10 21:53:00,
2013-04-10 15:02:00,51.0,50.0,30.07,SSE,160,5.0,12.0,96,37.55,,,-99.99,,2013-04-10 22:02:00,
2013-04-10 15:12:00,51.0,50.0,30.07,SSE,160,5.0,12.0,96,37.55,,,-99.99,,2013-04-10 22:12:00,
2013-04-10 15:34:00,51.0,49.0,30.08,SSW,200,8.0,22.0,93,37.55,,,-99.99,,2013-04-10 22:34:00,
2013-04-10 15:43:00,51.0,49.0,30.08,SSW,200,8.0,22.0,93,37.55,,,-99.99,,2013-04-10 22:43:00,
2013-04-10 15:53:00,51.0,49.0,30.08,SE,136,8.0,21.0,94,37.55,,,-99.99,,2013-04-10 22:53:00,
2013-04-10 16:00:00,51.0,48.0,30.08,South,170,7.0,23.0,90,37.55,,,-99.99,,2013-04-10 23:00:00,
2013-04-10 16:02:00,51.0,49.0,30.08,SE,136,8.0,21.0,94,37.55,,,-99.99,,2013-04-10 23:02:00,
2013-04-10 16:12:00,51.0,48.0,30.08,South,170,7.0,23.0,90,37.55,,,-99.99,,2013-04-10 23:12:00,
2013-04-10 16:22:00,51.0,48.0,30.08,South,170,7.0,23.0,90,37.55,,,-99.99,,2013-04-10 23:22:00,
2013-04-10 16:33:00,51.0,48.0,30.08,South,170,7.0,23.0,90,37.55,,,-99.99,,2013-04-10 23:33:00,
2013-04-10 16:43:00,51.0,48.0,30.08,South,170,7.0,23.0,90,37.55,,,-99.99,,2013-04-10 23:43:00,
2013-04-10 16:52:00,51.0,48.0,30.08,South,170,7.0,23.0,90,37.55,,,-99.99,,2013-04-10 23:52:00,
2013-04-10 18:40:00,49.0,45.0,30.12,North,359,1.0,8.0,87,37.55,,,-99.99,,2013-04-11 01:40:00,
2013-04-10 19:02:00,49.0,45.0,30.12,North,359,1.0,8.0,87,37.55,,,-99.99,,2013-04-11 02:02:00,
2013-04-10 19:12:00,49.0,45.0,30.12,North,359,1.0,8.0,87,37.55,,,-99.99,,2013-04-11 02:12:00,
2013-04-10 19:22:00,49.0,45.0,30.12,North,359,1.0,8.0,87,37.55,,,-99.99,,2013-04-11 02:22:00,
2013-04-10 19:32:00,49.0,45.0,30.12,North,359,1.0,8.0,87,37.55,,,-99.99,,2013-04-11 02:32:00,
2013-04-10 19:53:00,49.0,45.0,30.12,North,359,1.0,10.0,86,37.55,,,-99.99,,2013-04-11 02:53:00,
2013-04-10 20:02:00,49.0,45.0,30.13,North,359,2.0,12.0,86,37.55,,,-99.99,,2013-04-11 03:02:00,
2013-04-10 20:12:00,49.0,45.0,30.13,North,359,2.0,12.0,86,37.55,,,-99.99,,2013-04-11 03:12:00,
2013-04-10 20:22:00,49.0,45.0,30.13,North,359,2.0,12.0,86,37.55,,,-99.99,,2013-04-11 03:22:00,
2013-04-10 20:33:00,48.0,45.0,30.14,South,169,2.0,9.0,88,37.55,,,-99.99,,2013-04-11 03:33:00,
2013-04-10 20:42:00,48.0,45.0,30.14,South,169,2.0,9.0,88,37.55,,,-99.99,,2013-04-11 03:42:00,
2013-04-10 20:53:00,48.0,45.0,30.14,South,169,2.0,9.0,88,37.55,,,-99.99,,2013-04-11 03:53:00,
2013-04-10 21:03:00,48.0,45.0,30.14,South,169,2.0,9.0,88,37.55,,,-99.99,,2013-04-11 04:03:00,
2013-04-10 21:12:00,47.0,45.0,30.15,North,359,1.0,10.0,91,37.55,,,-99.99,,2013-04-11 04:12:00,
2013-04-10 21:22:00,47.0,45.0,30.15,North,359,1.0,10.0,91,37.55,,,-99.99,,2013-04-11 04:22:00,
2013-04-10 21:33:00,47.0,44.0,30.16,South,181,1.0,13.0,90,37.55,,,-99.99,,2013-04-11 04:33:00,
2013-04-10 21:42:00,47.0,44.0,30.16,South,181,1.0,13.0,90,37.55,,,-99.99,,2013-04-11 04:42:00,
2013-04-10 21:52:00,47.0,44.0,30.18,South,191,3.0,11.0,88,37.55,,,-99.99,,2013-04-11 04:52:00,
2013-04-10 22:02:00,47.0,43.0,30.18,North,359,3.0,13.0,86,37.55,,,-99.99,,2013-04-11 05:02:00,
2013-04-10 22:12:00,47.0,43.0,30.19,North,359,0.0,2.0,87,37.55,,,-99.99,,2013-04-11 05:12:00,
2013-04-10 22:22:00,47.0,43.0,30.19,North,359,0.0,2.0,87,37.55,,,-99.99,,2013-04-11 05:22:00,
2013-04-10 22:32:00,46.0,43.0,30.20,North,359,0.0,9.0,88,37.55,,,-99.99,,2013-04-11 05:32:00,
2013-04-10 22:42:00,46.0,43.0,30.20,North,359,0.0,9.0,88,37.55,,,-99.99,,2013-04-11 05:42:00,
2013-04-10 22:52:00,46.0,43.0,30.20,North,359,0.0,9.0,88,37.55,,,-99.99,,2013-04-11 05:52:00,
2013-04-10 23:02:00,46.0,43.0,30.20,SSE,153,2.0,11.0,90,37.55,,,-99.99,,2013-04-11 06:02:00,
2013-04-10 23:12:00,46.0,43.0,30.20,SSE,153,2.0,11.0,90,37.55,,,-99.99,,2013-04-11 06:12:00,
2013-04-10 23:22:00,46.0,43.0,30.20,SSE,153,2.0,11.0,90,37.55,,,-99.99,,2013-04-11 06:22:00,
2013-04-10 23:32:00,45.0,43.0,30.22,ESE,118,1.0,7.0,93,37.55,,,-99.99,,2013-04-11 06:32:00,
2013-04-10 23:42:00,45.0,43.0,30.22,ESE,118,1.0,7.0,93,37.55,,,-99.99,,2013-04-11 06:42:00,
2013-04-10 23:52:00,45.0,43.0,30.22,ESE,118,1.0,7.0,93,37.55,,,-99.99,,2013-04-11 06:52:00,